Simultaneous Nadir Overpasses (SNOs) Predictions

Prediction of SNOs between AQUA and NPP Satellite Orbit:

Table of predicted SNOs for the next 14.0 days since TLE Epoch: 10/27/2012
Index Date (AQUA) Time (AQUA) Lat,Lon (AQUA) SZA (AQUA ) Date (NPP) Time (NPP) Lat,Lon (NPP) SZA (NPP ) Distance(km) Time Diff (sec)
1 10/28/2012 07:10:28 -76.93, 134.36 71.73 10/28/2012 07:09:52 -76.94, 134.45 71.72 2.37 36
2 10/28/2012 07:59:38 77.65, -55.15 107.46 10/28/2012 08:00:19 77.66, -55.04 107.40 2.66 41
3 10/30/2012 22:42:45 59.25, 57.07 125.49 10/30/2012 22:41:33 59.52, 55.40 126.12 98.95 72
4 10/30/2012 23:26:43 -77.26,-108.48 71.25 10/30/2012 23:26:40 -77.27,-108.39 71.27 2.19 3
5 10/31/2012 00:15:21 79.30, 69.39 106.27 10/31/2012 00:16:35 79.19, 69.71 106.17 14.19 74
6 11/02/2012 14:53:50 76.64,-162.51 110.27 11/02/2012 14:53:05 76.64,-162.53 110.31 0.53 45
7 11/02/2012 15:42:58 -77.54, 8.55 70.74 11/02/2012 15:43:30 -77.55, 8.62 70.78 1.96 32
8 11/05/2012 07:10:00 77.06, -45.07 110.61 11/05/2012 07:09:52 77.05, -45.10 110.62 0.83 8
9 11/05/2012 07:59:10 -77.85, 125.81 70.29 11/05/2012 08:00:19 -77.86, 125.88 70.37 1.67 69
10 11/07/2012 22:36:56 -76.85, -97.54 68.40 11/07/2012 22:36:09 -76.86, -97.44 68.38 2.61 47




NCC Satellite Simultaneous Nadir Overpasses (SNOs) Prediction Service
